Kiana, AK

3:38 AM AKST on November 19, 2019 (GMT -0900)
Baker Memorial

Weather History for PAIK - October, 2019

Change the Weather History Date:

Wednesday, October 23, 2019

  Actual Average (PASK) Record (PASK)
Temperature  
Mean Temperature 18 °F -  
Max Temperature 28 °F 19 °F 39 °F (2018)
Min Temperature 7 °F 12 °F -2 °F (1997)
Degree Days  
Heating Degree Days 48    
Moisture  
Dew Point 10 °F    
Average Humidity 71    
Maximum Humidity 92    
Minimum Humidity 47    
Precipitation  
Precipitation 0.00 in - - ()
Sea Level Pressure  
Sea Level Pressure 29.63 in    
Wind  
Wind Speed 5 mph ()    
Max Wind Speed 13 mph    
Max Gust Speed -    
Visibility 9.9 miles    
Events      
Averages and records for this station are not official NWS values.
T = Trace of Precipitation, MM = Missing Value Source: Averaged Metar Reports

Daily Weather History Graph

Daily Weather History Graph

Search for Another Location

Airport or City:

Astronomy

Oct. 23, 2019 Rise Set
Actual Time 10:10 AM AKDT 6:40 PM AKDT
Civil Twilight 9:13 AM AKDT 7:37 PM AKDT
Nautical Twilight 8:11 AM AKDT 8:39 PM AKDT
Astronomical Twilight 7:09 AM AKDT 9:40 PM AKDT
Moon 1:25 AM AKDT (10/23) 7:22 PM AKDT (10/23)
Length of Visible Light 10h 23m
Length of Day
8h 29m
Waning Crescent, 25% of the Moon is Illuminated
Oct 23
Waning Crescent
Oct 27
New
Nov 4
First Quarter
Nov 12
Full
Nov 19
Last Quarter

Hourly Weather History & Observations

Time (AKDT) Temp. Windchill Dew Point Humidity Pressure Visibility Wind Dir Wind Speed Gust Speed Precip Events Conditions
12:56 AM 18.0 °F 9.8 °F 14.0 °F 84% 29.92 in 10.0 mi ENE 5.8 mph - N/A   Clear
1:56 AM 14.0 °F 5.1 °F 10.9 °F 88% 29.91 in 10.0 mi ENE 5.8 mph - N/A   Clear
4:56 AM 10.9 °F - 8.1 °F 88% 29.82 in 10.0 mi Calm Calm - N/A   Clear
5:56 AM 10.9 °F 1.4 °F 9.0 °F 92% 29.79 in 10.0 mi ENE 5.8 mph - N/A   Clear
6:56 AM 9.0 °F 0.6 °F 6.1 °F 88% 29.76 in 10.0 mi North 4.6 mph - N/A   Clear
7:56 AM 8.1 °F - 5.0 °F 87% 29.73 in 10.0 mi Calm Calm - N/A   Clear
8:56 AM 8.1 °F - 5.0 °F 87% 29.70 in 10.0 mi Calm Calm - N/A   Clear
9:56 AM 7.0 °F - 3.9 °F 87% 29.66 in 10.0 mi Calm Calm - N/A   Clear
10:56 AM 9.0 °F - 6.1 °F 88% 29.64 in 7.0 mi Calm Calm - N/A   Clear
11:56 AM 16.0 °F 8.8 °F 12.9 °F 88% 29.61 in 10.0 mi NE 4.6 mph - N/A   Clear
12:56 PM 21.0 °F 10.6 °F 15.1 °F 78% 29.60 in 10.0 mi North 9.2 mph - N/A   Clear
1:56 PM 25.0 °F 14.2 °F 14.0 °F 63% 29.58 in 10.0 mi North 11.5 mph - N/A   Clear
2:56 PM 28.0 °F 17.5 °F 12.0 °F 51% 29.56 in 10.0 mi North 12.7 mph - N/A   Clear
3:56 PM 28.0 °F 18.1 °F 10.0 °F 47% 29.54 in 10.0 mi North 11.5 mph - N/A   Clear
4:56 PM 26.1 °F 15.6 °F 9.0 °F 49% 29.51 in 10.0 mi North 11.5 mph - N/A   Clear
5:56 PM 25.0 °F 14.8 °F 10.0 °F 53% 29.50 in 10.0 mi North 10.4 mph - N/A   Clear
6:56 PM 24.1 °F 13.1 °F 10.0 °F 55% 29.50 in 10.0 mi North 11.5 mph - N/A   Clear
7:56 PM 23.0 °F 11.7 °F 10.0 °F 58% 29.49 in 10.0 mi North 11.5 mph - N/A   Clear
8:56 PM 23.0 °F 13.1 °F 10.9 °F 60% 29.49 in 10.0 mi North 9.2 mph - N/A   Clear
9:56 PM 23.0 °F 11.7 °F 10.9 °F 60% 29.49 in 10.0 mi North 11.5 mph - N/A   Clear
10:56 PM 23.0 °F 11.7 °F 10.0 °F 58% 29.50 in 10.0 mi North 11.5 mph - N/A   Clear
11:56 PM 21.0 °F 9.9 °F 9.0 °F 60% 29.50 in 10.0 mi North 10.4 mph - N/A   Clear